DW4604 Weather Reports


Display with metric or nautical units.
time (UTC)temp
F
wind
direction
speed
MPH
gust
MPH
rain 1hr
in
rain 24hr
in
rain mn
in
humidity
%
barometer
mb
20180817034454 64 69 3.0 7.0 0.00 0.00 0.00 88 1016.2
20180817033953 64 70 3.0 7.0 0.00 0.00 0.00 88 1016.3
20180817033453 64 72 3.0 6.0 0.00 0.00 0.00 88 1016.3
20180817032954 64 71 3.0 6.0 0.00 0.00 0.00 89 1016.3
20180817032454 63 72 3.0 6.0 0.00 0.00 0.00 89 1016.3
20180817031954 63 75 2.0 5.0 0.00 0.00 0.00 89 1016.4
20180817031454 63 74 2.0 6.0 0.00 0.00 0.00 89 1016.3
20180817030954 63 73 3.0 6.0 0.00 0.00 0.00 89 1016.4
20180817030453 63 72 3.0 6.0 0.00 0.00 0.00 89 1016.4
20180817025953 63 69 3.0 6.0 0.00 0.00 0.00 89 1016.4
20180817025454 63 71 2.0 6.0 0.00 0.00 0.00 88 1016.4
20180817024954 63 73 2.0 6.0 0.00 0.00 0.00 88 1016.4
20180817024454 64 73 2.0 6.0 0.00 0.00 0.00 88 1016.4
20180817023954 64 73 2.0 6.0 0.00 0.00 0.00 88 1016.5
20180817023454 64 73 2.0 6.0 0.00 0.00 0.00 88 1016.4
20180817022953 64 74 2.0 5.0 0.00 0.00 0.00 88 1016.4
20180817022453 64 76 3.0 6.0 0.00 0.00 0.00 88 1016.4
20180817021954 64 73 2.0 6.0 0.00 0.00 0.00 88 1016.4
20180817021454 64 71 3.0 6.0 0.00 0.00 0.00 88 1016.5
20180817020954 64 72 3.0 6.0 0.00 0.00 0.00 88 1016.5
20180817020453 64 75 3.0 5.0 0.00 0.00 0.00 87 1016.5
20180817015954 64 69 3.0 7.0 0.00 0.00 0.00 87 1016.5
20180817015454 64 65 3.0 7.0 0.00 0.00 0.00 87 1016.5
20180817014954 64 68 3.0 7.0 0.00 0.00 0.00 87 1016.5
20180817014454 64 70 3.0 7.0 0.00 0.00 0.00 87 1016.5
20180817013953 64 71 2.0 6.0 0.00 0.00 0.00 87 1016.5
20180817013454 64 71 2.0 6.0 0.00 0.00 0.00 87 1016.6
20180817012954 65 73 2.0 7.0 0.00 0.00 0.00 87 1016.6
20180817012454 65 70 3.0 7.0 0.00 0.00 0.00 87 1016.6
20180817011954 65 68 3.0 6.0 0.00 0.00 0.00 86 1016.6
20180817011454 65 71 2.0 5.0 0.00 0.00 0.00 86 1016.7
20180817010954 65 75 2.0 5.0 0.00 0.00 0.00 86 1016.7
20180817010454 65 73 3.0 6.0 0.00 0.00 0.00 86 1016.7
20180817005955 65 70 3.0 7.0 0.00 0.00 0.00 86 1016.6
20180817005454 65 69 2.0 7.0 0.00 0.00 0.00 86 1016.7
20180817004954 65 69 2.0 6.0 0.00 0.00 0.00 86 1016.6
20180817004454 65 71 2.0 6.0 0.00 0.00 0.00 86 1016.6
20180817003954 65 72 2.0 6.0 0.00 0.00 0.00 86 1016.7
20180817003454 65 68 3.0 8.0 0.00 0.00 0.00 85 1016.7
20180817002954 65 67 3.0 8.0 0.00 0.00 0.00 85 1016.7
20180817002454 65 69 3.0 7.0 0.00 0.00 0.00 85 1016.8
20180817001954 65 69 3.0 7.0 0.00 0.00 0.00 85 1016.8
20180817001454 65 70 3.0 7.0 0.00 0.00 0.00 85 1016.8
20180817000954 65 69 3.0 7.0 0.00 0.00 0.00 85 1016.8
20180817000454 65 67 3.0 5.0 0.00 0.00 0.00 85 1016.9
20180816235955 65 68 3.0 5.0 0.00 0.00 0.00 84 1016.9
20180816235454 65 70 2.0 5.0 0.00 0.00 0.00 84 1017.0
20180816234955 65 70 2.0 5.0 0.00 0.00 0.00 84 1017.0
20180816234454 65 72 2.0 5.0 0.00 0.00 0.00 84 1017.0
20180816233954 65 71 2.0 5.0 0.00 0.00 0.00 84 1017.0
20180816233454 65 72 3.0 5.0 0.00 0.00 0.00 84 1017.1
20180816232955 65 73 3.0 5.0 0.00 0.00 0.00 83 1017.1
20180816232455 65 69 3.0 5.0 0.00 0.00 0.00 83 1017.1
20180816231954 66 66 3.0 5.0 0.00 0.00 0.00 83 1017.1
20180816231454 66 67 3.0 5.0 0.00 0.00 0.00 83 1017.1
20180816230954 66 68 3.0 5.0 0.00 0.00 0.00 83 1017.2
20180816230455 66 68 2.0 5.0 0.00 0.00 0.00 82 1017.2
20180816225955 66 69 2.0 4.0 0.00 0.00 0.00 82 1017.2
20180816225454 66 70 2.0 5.0 0.00 0.00 0.00 82 1017.2
20180816224955 66 68 2.0 5.0 0.00 0.00 0.00 82 1017.3
20180816224454 66 66 2.0 7.0 0.00 0.00 0.00 83 1017.3
20180816223954 66 69 2.0 7.0 0.00 0.00 0.00 83 1017.3
20180816223454 65 68 1.0 4.0 0.00 0.00 0.00 83 1017.3
20180816222954 65 64 1.0 4.0 0.00 0.00 0.00 83 1017.4
20180816222454 65 64 1.0 4.0 0.00 0.00 0.00 84 1017.5
20180816221954 65 61 0.0 4.0 0.00 0.00 0.00 84 1017.5
20180816221454 65 55 0.0 1.0 0.00 0.00 0.00 84 1017.6
20180816220955 65 47 0.0 1.0 0.00 0.00 0.00 84 1017.5
20180816220455 65 46 0.0 1.0 0.00 0.00 0.00 83 1017.5
20180816215956 65 49 0.0 4.0 0.00 0.00 0.00 82 1017.6
20180816215455 66 56 1.0 4.0 0.00 0.00 0.00 81 1017.5
20180816214955 67 65 0.0 3.0 0.00 0.00 0.00 80 1017.6
20180816214455 67 73 1.0 3.0 0.00 0.00 0.00 80 1017.6
20180816213955 67 78 1.0 3.0 0.00 0.00 0.00 80 1017.6
20180816213455 67 70 1.0 3.0 0.00 0.00 0.00 80 1017.6
20180816212955 67 63 0.0 3.0 0.00 0.00 0.00 79 1017.6
20180816212455 67 71 1.0 5.0 0.00 0.00 0.00 79 1017.6
20180816211955 67 71 2.0 5.0 0.00 0.00 0.00 79 1017.6
20180816211455 67 74 2.0 4.0 0.00 0.00 0.00 79 1017.5
20180816210955 67 77 2.0 4.0 0.00 0.00 0.00 79 1017.5
20180816210454 67 75 2.0 3.0 0.00 0.00 0.00 79 1017.4
20180816205955 67 75 1.0 4.0 0.00 0.00 0.00 79 1017.5
20180816205455 67 72 1.0 4.0 0.00 0.00 0.00 80 1017.5
20180816204955 67 69 1.0 3.0 0.00 0.00 0.00 81 1017.6
20180816204455 66 60 0.0 1.0 0.00 0.00 0.00 81 1017.5
20180816203955 66 57 0.0 3.0 0.00 0.00 0.00 81 1017.6
20180816203455 67 56 1.0 3.0 0.00 0.00 0.00 81 1017.6
20180816202955 67 56 0.0 3.0 0.00 0.00 0.00 79 1017.5
20180816202455 67 56 0.0 3.0 0.00 0.00 0.00 79 1017.5
20180816201955 67 58 0.0 1.0 0.00 0.00 0.00 78 1017.5
20180816201455 68 60 0.0 1.0 0.00 0.00 0.00 78 1017.5
20180816200955 68 70 0.0 2.0 0.00 0.00 0.00 77 1017.5
20180816200455 68 72 1.0 3.0 0.00 0.00 0.00 76 1017.6
20180816195956 68 71 0.0 3.0 0.00 0.00 0.00 77 1017.5
20180816195455 68 66 0.0 2.0 0.00 0.00 0.00 77 1017.5
20180816194955 68 64 0.0 2.0 0.00 0.00 0.00 77 1017.5
20180816194455 68 58 0.0 1.0 0.00 0.00 0.00 77 1017.5
20180816193956 68 58 0.0 1.0 0.00 0.00 0.00 77 1017.5
20180816193455 68 58 0.0 1.0 0.00 0.00 0.00 77 1017.6
20180816192955 68 59 0.0 1.0 0.00 0.00 0.00 76 1017.6
20180816192455 69 59 0.0 1.0 0.00 0.00 0.00 75 1017.6
20180816191955 69 58 0.0 1.0 0.00 0.00 0.00 75 1017.6
20180816191455 69 59 0.0 1.0 0.00 0.00 0.00 74 1017.6
20180816190955 69 59 0.0 2.0 0.00 0.00 0.00 74 1017.7
20180816190455 69 60 0.0 2.0 0.00 0.00 0.00 73 1017.6
20180816185955 70 58 0.0 2.0 0.00 0.00 0.00 73 1017.6
20180816185455 70 58 0.0 2.0 0.00 0.00 0.00 73 1017.6
20180816184955 70 69 0.0 2.0 0.00 0.00 0.00 73 1017.6
20180816184455 70 64 0.0 2.0 0.00 0.00 0.00 73 1017.6
20180816183956 70 58 0.0 2.0 0.00 0.00 0.00 73 1017.5
20180816183456 70 58 0.0 1.0 0.00 0.00 0.00 73 1017.5
20180816182956 70 58 0.0 1.0 0.00 0.00 0.00 72 1017.5
20180816182456 71 58 0.0 1.0 0.00 0.00 0.00 71 1017.4
20180816181956 71 58 0.0 1.0 0.00 0.00 0.00 70 1017.3
20180816181456 71 58 0.0 2.0 0.00 0.00 0.00 69 1017.3
20180816180956 71 58 0.0 2.0 0.00 0.00 0.00 68 1017.2
20180816180456 72 56 1.0 3.0 0.00 0.00 0.00 68 1017.2
20180816175955 72 54 1.0 3.0 0.00 0.00 0.00 67 1017.1
20180816175455 72 52 1.0 3.0 0.00 0.00 0.00 66 1017.1
20180816174955 73 57 1.0 3.0 0.00 0.00 0.00 66 1017.2
20180816174455 73 63 1.0 3.0 0.00 0.00 0.00 65 1017.1
20180816173955 73 67 0.0 2.0 0.00 0.00 0.00 64 1017.0
20180816173455 74 74 0.0 3.0 0.00 0.00 0.00 63 1017.0
20180816172956 74 69 1.0 4.0 0.00 0.00 0.00 62 1017.0
20180816172456 74 67 2.0 4.0 0.00 0.00 0.00 61 1017.0
20180816171956 74 66 1.0 4.0 0.00 0.00 0.00 61 1017.1
20180816171456 75 65 2.0 4.0 0.00 0.00 0.00 60 1017.0
20180816170955 75 67 2.0 5.0 0.00 0.00 0.00 60 1017.0
20180816170455 75 69 2.0 5.0 0.00 0.00 0.00 59 1017.0
20180816165956 75 71 2.0 4.0 0.00 0.00 0.00 60 1017.0
20180816165456 75 68 2.0 4.0 0.00 0.00 0.00 59 1017.0
20180816164956 75 65 2.0 4.0 0.00 0.00 0.00 59 1017.0
20180816164456 75 65 1.0 5.0 0.00 0.00 0.00 59 1017.1
20180816163956 76 68 1.0 5.0 0.00 0.00 0.00 59 1017.0
20180816163456 76 69 2.0 6.0 0.00 0.00 0.00 59 1017.0
20180816162956 76 68 2.0 6.0 0.00 0.00 0.00 58 1017.0
20180816162456 76 69 1.0 5.0 0.00 0.00 0.00 58 1017.0
20180816161956 76 71 2.0 4.0 0.00 0.00 0.00 58 1017.1
20180816161456 76 71 1.0 5.0 0.00 0.00 0.00 58 1017.1
20180816160956 76 70 1.0 5.0 0.00 0.00 0.00 57 1017.1
20180816160455 76 71 1.0 6.0 0.00 0.00 0.00 57 1017.2
20180816155956 76 76 1.0 6.0 0.00 0.00 0.00 57 1017.2
20180816155456 76 80 1.0 4.0 0.00 0.00 0.00 57 1017.2
20180816154956 77 76 1.0 4.0 0.00 0.00 0.00 56 1017.3
20180816154456 77 70 2.0 4.0 0.00 0.00 0.00 56 1017.2
20180816153956 77 64 2.0 5.0 0.00 0.00 0.00 57 1017.2
20180816153456 77 62 2.0 6.0 0.00 0.00 0.00 57 1017.2
20180816152956 77 66 2.0 6.0 0.00 0.00 0.00 57 1017.2
20180816152456 76 70 2.0 7.0 0.00 0.00 0.00 57 1017.3
20180816151956 76 64 3.0 7.0 0.00 0.00 0.00 56 1017.2
20180816151456 77 61 4.0 9.0 0.00 0.00 0.00 55 1017.2
20180816150956 77 64 2.0 9.0 0.00 0.00 0.00 55 1017.2
20180816150456 77 68 1.0 6.0 0.00 0.00 0.00 55 1017.4
20180816145956 78 46 2.0 6.0 0.00 0.00 0.00 58 1017.3
20180816145456 77 60 3.0 7.0 0.00 0.00 0.00 57 1017.3
20180816144956 78 67 3.0 8.0 0.00 0.00 0.00 57 1017.4
20180816144456 78 59 2.0 9.0 0.00 0.00 0.00 57 1017.4
20180816143956 77 59 3.0 9.0 0.00 0.00 0.00 57 1017.5
20180816143456 78 65 2.0 7.0 0.00 0.00 0.00 56 1017.5
20180816142956 78 74 1.0 6.0 0.00 0.00 0.00 56 1017.6
20180816142456 78 79 1.0 7.0 0.00 0.00 0.00 58 1017.6
20180816141956 77 118 2.0 7.0 0.00 0.00 0.00 56 1017.7
20180816141456 78 190 2.0 5.0 0.00 0.00 0.00 55 1017.8
20180816140956 78 169 1.0 5.0 0.00 0.00 0.00 57 1017.8
20180816140457 78 97 1.0 5.0 0.00 0.00 0.00 57 1017.9
20180816135956 77 115 1.0 6.0 0.00 0.00 0.00 58 1017.9
20180816135456 78 85 2.0 6.0 0.00 0.00 0.00 56 1017.9
20180816134956 78 77 2.0 6.0 0.00 0.00 0.00 58 1017.9
20180816134456 78 105 1.0 8.0 0.00 0.00 0.00 57 1017.9
20180816133956 78 117 1.0 8.0 0.00 0.00 0.00 57 1017.9
20180816133456 77 75 3.0 9.0 0.00 0.00 0.00 57 1018.0
20180816132957 77 73 4.0 9.0 0.00 0.00 0.00 57 1018.0
20180816132457 77 72 2.0 11.0 0.00 0.00 0.00 57 1018.0
20180816131957 77 58 2.0 11.0 0.00 0.00 0.00 56 1018.1
20180816131456 76 47 2.0 5.0 0.00 0.00 0.00 58 1018.2
20180816130956 76 60 3.0 7.0 0.00 0.00 0.00 58 1018.2
20180816130456 75 68 4.0 8.0 0.00 0.00 0.00 59 1018.3
20180816125956 75 75 4.0 8.0 0.00 0.00 0.00 59 1018.3
20180816125457 76 78 4.0 8.0 0.00 0.00 0.00 59 1018.3
20180816124957 76 71 4.0 12.0 0.00 0.00 0.00 59 1018.4
20180816124457 77 65 3.0 12.0 0.00 0.00 0.00 57 1018.4
20180816123956 77 65 3.0 9.0 0.00 0.00 0.00 58 1018.5
20180816123456 77 68 4.0 9.0 0.00 0.00 0.00 58 1018.5
20180816122956 77 69 3.0 9.0 0.00 0.00 0.00 57 1018.5
20180816122457 77 69 3.0 7.0 0.00 0.00 0.00 55 1018.6
20180816121957 78 72 3.0 8.0 0.00 0.00 0.00 57 1018.6
20180816121456 77 69 2.0 8.0 0.00 0.00 0.00 56 1018.6
20180816120956 77 77 1.0 5.0 0.00 0.00 0.00 57 1018.7
20180816120456 76 79 2.0 6.0 0.00 0.00 0.00 57 1018.8
20180816115957 76 78 1.0 6.0 0.00 0.00 0.00 56 1018.8
20180816115456 76 83 1.0 4.0 0.00 0.00 0.00 58 1018.8
20180816114956 76 64 1.0 4.0 0.00 0.00 0.00 57 1018.8
20180816114456 76 30 1.0 3.0 0.00 0.00 0.00 60 1018.9
20180816113957 75 47 1.0 3.0 0.00 0.00 0.00 60 1018.9
20180816113457 75 71 1.0 3.0 0.00 0.00 0.00 59 1018.8
20180816112957 75 78 1.0 5.0 0.00 0.00 0.00 60 1018.9
20180816112457 75 70 1.0 5.0 0.00 0.00 0.00 60 1019.0
20180816111956 75 62 1.0 4.0 0.00 0.00 0.00 60 1019.0
20180816111456 75 68 1.0 5.0 0.00 0.00 0.00 60 1019.0
20180816110956 75 73 3.0 10.0 0.00 0.00 0.00 60 1019.0
20180816110457 76 70 4.0 10.0 0.00 0.00 0.00 59 1019.1
20180816105957 76 60 3.0 9.0 0.00 0.00 0.00 59 1019.1
20180816105457 76 48 2.0 5.0 0.00 0.00 0.00 59 1019.0
20180816104957 76 40 2.0 6.0 0.00 0.00 0.00 59 1019.0
20180816104457 75 15 3.0 8.0 0.00 0.00 0.00 60 1019.1
20180816103957 75 24 4.0 10.0 0.00 0.00 0.00 60 1019.1
20180816103457 76 53 3.0 10.0 0.00 0.00 0.00 60 1019.2
20180816102956 76 74 1.0 6.0 0.00 0.00 0.00 61 1019.2
20180816102457 75 69 1.0 6.0 0.00 0.00 0.00 61 1019.2
20180816101957 73 37 2.0 5.0 0.00 0.00 0.00 65 1019.2
20180816101457 73 349 2.0 7.0 0.00 0.00 0.00 64 1019.2
20180816100957 73 335 2.0 7.0 0.00 0.00 0.00 65 1019.3
20180816100457 73 325 1.0 5.0 0.00 0.00 0.00 65 1019.3
20180816095957 73 327 1.0 5.0 0.00 0.00 0.00 66 1019.4
20180816095457 73 318 1.0 5.0 0.00 0.00 0.00 66 1019.3
20180816094958 73 335 1.0 5.0 0.00 0.00 0.00 65 1019.4
20180816094457 73 17 1.0 4.0 0.00 0.00 0.00 67 1019.5
20180816093957 72 7 2.0 6.0 0.00 0.00 0.00 68 1019.5
20180816093457 72 1 2.0 6.0 0.00 0.00 0.00 67 1019.6
20180816092957 72 344 2.0 6.0 0.00 0.00 0.00 67 1019.5
20180816092457 72 340 2.0 6.0 0.00 0.00 0.00 67 1019.5
20180816091957 72 350 2.0 7.0 0.00 0.00 0.00 68 1019.6
20180816091457 72 343 2.0 7.0 0.00 0.00 0.00 67 1019.6
20180816090958 72 343 1.0 6.0 0.00 0.00 0.00 67 1019.6
20180816090457 72 334 1.0 4.0 0.00 0.00 0.00 69 1019.6
20180816085957 72 332 1.0 4.0 0.00 0.00 0.00 69 1019.6
20180816085457 71 339 2.0 7.0 0.00 0.00 0.00 69 1019.7
20180816084957 71 348 2.0 7.0 0.00 0.00 0.00 69 1019.7
20180816084457 71 26 1.0 5.0 0.00 0.00 0.00 69 1019.7
20180816083958 71 54 2.0 6.0 0.00 0.00 0.00 71 1019.8
20180816083458 71 45 2.0 6.0 0.00 0.00 0.00 71 1019.9
20180816082958 70 45 2.0 5.0 0.00 0.00 0.00 72 1019.8
20180816082457 70 55 1.0 4.0 0.00 0.00 0.00 72 1019.9
20180816081957 70 58 2.0 4.0 0.00 0.00 0.00 72 1019.8
20180816081457 70 45 2.0 6.0 0.00 0.00 0.00 72 1019.8
20180816080958 70 43 2.0 6.0 0.00 0.00 0.00 72 1019.9
20180816080457 70 65 2.0 6.0 0.00 0.00 0.00 72 1019.9
20180816075957 70 62 3.0 6.0 0.00 0.00 0.00 72 1019.9
20180816075457 70 58 2.0 7.0 0.00 0.00 0.00 73 1020.0
20180816074957 71 55 2.0 8.0 0.00 0.00 0.00 73 1019.9
20180816074457 71 48 3.0 8.0 0.00 0.00 0.00 73 1019.9
20180816073958 71 39 3.0 7.0 0.00 0.00 0.00 71 1019.9
20180816073458 71 46 4.0 8.0 0.00 0.00 0.00 72 1019.8
20180816072957 71 54 4.0 8.0 0.00 0.00 0.00 72 1019.9
20180816072457 70 49 3.0 6.0 0.00 0.00 0.00 72 1019.9
20180816071958 70 51 3.0 6.0 0.00 0.00 0.00 74 1019.9
20180816071458 70 59 4.0 6.0 0.00 0.00 0.00 74 1019.9
20180816070958 70 59 3.0 6.0 0.00 0.00 0.00 74 1019.9
20180816070457 70 53 3.0 6.0 0.00 0.00 0.00 76 1019.9
20180816065958 69 61 4.0 8.0 0.00 0.00 0.00 77 1019.8
20180816065458 69 60 3.0 8.0 0.00 0.00 0.00 77 1019.8
20180816064958 69 59 2.0 6.0 0.00 0.00 0.00 78 1019.8
20180816064458 69 58 2.0 6.0 0.00 0.00 0.00 80 1019.7
20180816063958 68 43 3.0 7.0 0.00 0.00 0.00 81 1019.7
20180816063458 68 45 3.0 7.0 0.00 0.00 0.00 80 1019.8
20180816062958 67 48 2.0 6.0 0.00 0.00 0.00 81 1019.8
20180816062457 68 44 2.0 6.0 0.00 0.00 0.00 81 1019.7
20180816061957 67 41 3.0 8.0 0.00 0.00 0.00 82 1019.7
20180816061458 67 41 3.0 8.0 0.00 0.00 0.00 82 1019.7
20180816060958 67 45 3.0 8.0 0.00 0.00 0.00 82 1019.8
20180816060458 67 55 3.0 8.0 0.00 0.00 0.00 82 1019.8
20180816055957 67 57 3.0 6.0 0.00 0.00 0.00 84 1019.8
20180816055458 67 50 2.0 6.0 0.00 0.00 0.00 83 1019.8
20180816054958 67 40 2.0 6.0 0.00 0.00 0.00 84 1019.8
20180816054458 66 41 2.0 6.0 0.00 0.00 0.00 85 1019.8
20180816053958 66 55 1.0 5.0 0.00 0.00 0.00 85 1019.8
20180816053458 66 60 1.0 3.0 0.00 0.00 0.00 87 1019.8
20180816052957 65 51 0.0 3.0 0.00 0.00 0.00 88 1019.8
20180816052458 65 56 0.0 2.0 0.00 0.00 0.00 90 1019.7
20180816051958 64 42 0.0 1.0 0.00 0.00 0.00 92 1019.7
20180816051458 63 347 0.0 1.0 0.00 0.00 0.00 94 1019.6
20180816050958 62 0 0.0 0.0 0.00 0.00 0.00 93 1019.6
20180816050458 61 0 0.0 0.0 0.00 0.00 0.00 92 1019.6
20180816045958 60 0 0.0 0.0 0.00 0.00 0.00 92 1019.6
20180816045457 60 0 0.0 0.0 0.00 0.00 0.00 91 1019.6
20180816044958 61 0 0.0 0.0 0.00 0.00 0.00 91 1019.5
20180816044457 61 0 0.0 0.0 0.00 0.00 0.00 92 1019.5
20180816043958 61 0 0.0 0.0 0.00 0.00 0.00 93 1019.5
20180816043458 61 347 0.0 1.0 0.00 0.00 0.00 94 1019.5
20180816042958 61 347 0.0 1.0 0.00 0.00 0.00 94 1019.5
20180816042458 60 0 0.0 0.0 0.00 0.00 0.00 95 1019.4
20180816041958 60 0 0.0 0.0 0.00 0.00 0.00 94 1019.4
20180816041458 60 0 0.0 0.0 0.00 0.00 0.00 95 1019.3
20180816040958 59 347 0.0 1.0 0.00 0.00 0.00 95 1019.3
20180816040458 59 347 0.0 1.0 0.00 0.00 0.00 94 1019.2
20180816035959 59 0 0.0 0.0 0.00 0.00 0.00 94 1019.2
20180816035458 59 0 0.0 0.0 0.00 0.00 0.00 94 1019.2
20180816034958 59 0 0.0 0.0 0.00 0.00 0.00 94 1019.2